Regional Weather Roundup
Issued by NWS

Home | Current Version | Previous Version | Graphics & Text | Print | Product List | Glossary On
Versions: 1 2 3 4 5 6 7 8 9 10 11 12 13 14 15 16 17 18 19 20 21 22 23 24 25 26 27 28 29 30 31 32 33 34 35 36 37 38 39 40 41 42 43 44 45 46 47 48 49 50
000
ASUS43 KDTX 160101
RWRMI
MICHIGAN HOURLY REGIONAL WEATHER ROUNDUP
NATIONAL WEATHER SERVICE DETROIT/PONTIAC MI
900 PM EDT MON SEP 15 2014

NOTE: "FAIR" INDICATES FEW OR NO CLOUDS BELOW 12,000 FEET WITH NO
SIGNIFICANT WEATHER AND/OR OBSTRUCTION TO VISIBILITY.

MIZ047>049-052>055-059>063-066>070-074>076-081>083-160200-
SOUTHEAST LOWER MICHIGAN

CITY           SKY/WX    TMP DP  RH WIND       PRES   REMARKS
ADRIAN         CLOUDY    54  53  97 CALM      30.10S
ALMA           RAIN      53  52  95 CALM      30.11R
ANN ARBOR      CLOUDY    56  51  84 SW5       30.08S
BAD AXE        RAIN      53  53 100 CALM      30.09R
CARO           LGT RAIN  54  52  95 CALM      30.10R
DETROIT CITY   CLOUDY    60  50  69 CALM      30.08R
DETROIT        LGT RAIN  57  53  86 SW9       30.09S
FLINT          LGT RAIN  56  53  90 NE7       30.10R
GROSSE ILE     RAIN      57  54  88 SW6       30.08R
HILLSDALE      HVY RAIN  55  55 100 CALM      30.10R
HOWELL         LGT RAIN  53  52  95 NW3       30.09S

CITY           SKY/WX    TMP DP  RH WIND       PRES   REMARKS
JACKSON        CLOUDY    53  51  93 CALM      30.10R
LAMBERTVILLE   LGT RAIN  54  52  94 CALM      30.10F
LANSING        CLOUDY    53  50  89 CALM      30.10S
LAPEER         LGT RAIN  54  51  90 N3        30.10R
MASON          CLOUDY    54  51  90 NW3       30.10R
MONROE         CLOUDY    55  54  94 W6        30.09R
MT. CLEMENS    LGT RAIN  56  50  81 NW5       30.07R
PONTIAC        LGT RAIN  54  49  83 NW10      30.08S
PORT HOPE        N/A     54  51  90 W3        30.07S
PORT HURON     LGT RAIN  54  54 100 CALM      30.09R
TRI CITIES     LGT RAIN  55  52  89 N5        30.11R
TROY           CLOUDY    58  52  80 NW5       30.10S
SAGINAW HB     LGT RAIN  54  54 100 CALM      30.09S
$$
MIZ043>046-050>051-056>058-064>065-071>073-077>080-160200-
SOUTHWEST LOWER MICHIGAN

CITY           SKY/WX    TMP DP  RH WIND       PRES   REMARKS
BATTLE CREEK   CLOUDY    54  51  90 W3        30.10S
BENTON HARBOR  CLOUDY    57  53  86 N5        30.10R
BIG RAPIDS     CLOUDY    51  51 100 NW3       30.11R
COLDWATER      CLOUDY    55  54  95 W5        30.10S
FREMONT        MOCLDY    51  49  94 N5        30.11R
HOLLAND        CLOUDY    56  53  90 N6        30.12R
GRAND RAPIDS   CLOUDY    54  53  97 N5        30.11R
IONIA          CLOUDY    53  52  98 CALM      30.10R
KALAMAZOO      CLOUDY    55  52  89 CALM      30.10S
LUDINGTON      PTCLDY    49  48  96 NW3       30.12S FOG
MARSHALL       DRIZZLE   54  53  95 CALM      30.09S
MOUNT PLEASANT LGT RAIN  52  51  96 CALM      30.10R
MUSKEGON       CLOUDY    54  50  87 N7        30.12R
SOUTH HAVEN    CLOUDY    55  54  94 NE6       30.11R
$$
MIZ016>042-160200-
NORTHERN LOWER MICHIGAN

CITY           SKY/WX    TMP DP  RH WIND       PRES   REMARKS
ALPENA         CLOUDY    51  48  89 CALM      30.08R
BEAVER ISLAND  CLOUDY    56  46  67 NW3       30.10R
BELLAIRE       CLEAR     46  44  93 CALM      30.12R
CADILLAC       PTCLDY    47  47 100 CALM      30.11R FOG
CHARLEVOIX     MOCLDY    54  45  70 W7        30.13R
FRANKFORT      CLEAR     49  45  88 CALM      30.11S
GAYLORD        PTCLDY    49  42  77 NW5       30.10R
GRAYLING       PTCLDY   N/A N/A N/A SW3       30.11R
HARBOR SPRINGS CLOUDY    55  45  68 NW5       30.09S
HOUGHTON LAKE  MOCLDY    51  48  89 W6        30.10R
MANISTEE       CLEAR     48  45  87 CALM      30.12S
OSCODA         CLOUDY    52  51  97 W3        30.07R
PELLSTON       CLOUDY    52  49  89 N3        30.10R
ROGERS CITY    CLOUDY    52  49  89 W5        30.09R
TRAVERSE CITY  PTCLDY    50  45  83 CALM      30.10R
$$
MIZ007>008-015-160200-
EASTERN UPPER MICHIGAN

CITY           SKY/WX    TMP DP  RH WIND       PRES   REMARKS
KINROSS        CLEAR     48  45  87 NW6       30.09R
MACKINAC ISLAN MOCLDY    53  48  83 NW3       30.08S
NEWBERRY       MOCLDY    49  44  84 NW5       30.10R
S. S. MARIE    CLEAR     49  43  80 NW8       30.08R
$$
MIZ004>006-011>014-085-160200-
CENTRAL UPPER MICHIGAN

CITY           SKY/WX    TMP DP  RH WIND       PRES   REMARKS
MANISTIQUE     CLOUDY    50  47  90 NW3       30.11R
ESCANABA       MOCLDY    52  46  82 NE3       30.12R
MENOMINEE      CLEAR     50  46  87 CALM      30.10R
SAWYER-GWINN   MOCLDY    52  46  82 NW5       30.11R
$$
MIZ001>003-009>011-084-160200-
WESTERN UPPER MICHIGAN

CITY           SKY/WX    TMP DP  RH WIND       PRES   REMARKS
IRON MOUNTAIN  CLEAR     50  39  66 NW7       30.12R
HOUGHTON       CLEAR     45  39  79 W8        30.10S
COPPER HARBOR    N/A     49  41  74 VRB3      30.09R
IRONWOOD       CLEAR     45  39  81 SW3       30.12S
$$

ABBREVIATIONS USED IN REMARKS
   TC - TEMPERATURE IN CELSIUS
  WCI - WIND CHILL INDEX
   HX - HEAT INDEX
  VSB - VISIBILITY




USA.gov is the U.S. government's official web portal to all federal, state and local government web resources and services.